Location: Flotzheim
(48.8375°N, 10.8136°E)
Time: 03:45:27
(UTC+00:00)

NOSS 2-1 (C) - Pass Details

Date: 23 January 2021
Orbit: 432 x 1770 km, 63.3° (Epoch: 24 February)

Event Time Altitude Azimuth Distance (km) Brightness Sun altitude
Rises 17:29:29 0° 193° (SSW) 2,467 7.0 -14.5°
Reaches altitude 10° 17:31:47 10° 181° (S) 1,545 5.8 -14.9°
Maximum altitude 17:34:37 27° 121° (ESE) 874 3.9 -15.3°
Enters shadow 17:34:45 27° 117° (ESE) 876 3.9 -15.4°
